Regional Weather Roundup
Issued by NWS

Home | Current Version | Previous Version | Text Only | Print | Product List | Glossary On
Versions: 1 2 3 4 5 6 7 8 9 10 11 12 13 14 15 16 17 18 19 20 21 22 23 24 25 26 27
000
ASUS45 KBOU 241507
RWRCO

WEATHER ROUNDUP FOR COLORADO
NATIONAL WEATHER SERVICE DENVER/BOULDER CO
800 AM MST TUE JAN 24 2017

NOTE: "FAIR" INDICATES FEW OR NO CLOUDS BELOW 12000 FEET WITH NO
SIGNIFICANT WEATHER AND/OR OBSTRUCTIONS TO VISIBILITY.

COZ001>005-013-030-031-241600-
...NORTHWEST COLORADO...

CITY           SKY/WX    TMP DP  RH WIND       PRES   REMARKS
CRAIG          LGT SNOW  23  20  88 CALM      29.62R VSB 1
HAYDEN         CLOUDY    21  16  79 W7        29.60R WCI  13
MEEKER         LGT SNOW  25  22  88 W5        29.60R FOG     WCI  19
MOUNT WERNER   NOT AVBL
STEAMBOAT SPGS CLOUDY    19  17  90 SE3       29.58R
WALDEN           N/A     16  10  79 S6        29.54S WCI   7
$$

COZ006>008-011-241600-
...WEST CENTRAL VALLEYS...

CITY           SKY/WX    TMP DP  RH WIND       PRES   REMARKS
GRAND JUNCTION FAIR      28  27  96 CALM      29.63R
MONTROSE       LGT SNOW  27  26  96 CALM      29.63R FOG
EAGLE          LGT SNOW  16  14  93 CALM      29.62R FOG
RIFLE          CLOUDY    26  24  92 CALM      29.61R
DELTA          FAIR      31  27  83 CALM      29.62R
NUCLA          CLOUDY    28  27  93 CALM      29.65S
$$

COZ017>023-064>068-241600-
...SOUTHWEST COLORADO...

CITY           SKY/WX    TMP DP  RH WIND       PRES   REMARKS
DURANGO        CLOUDY    22  18  85 CALM      29.61R
CORTEZ         LGT SNOW  27  26  96 S16       29.64R FOG     WCI  15
PAGOSA SPRINGS CLOUDY    23  23 100 SW5       29.59R WCI  17
TELLURIDE      LGT SNOW  18  16  95 W3        29.56S VSB 1
WOLF CREEK PAS CLOUDY     9   7  92 SW9G16    29.53S WCI  -5
$$

COZ009-010-012-014-032>034-037-058>063-241600-
...CENTRAL COLORADO...

CITY           SKY/WX    TMP DP  RH WIND       PRES   REMARKS
ASPEN          LGT SNOW  18  15  88 CALM      29.54S FOG
BUENA VISTA    MOCLDY    12   6  76 N8        29.54S WCI   1
COPPER MTN     MOCLDY    10   3  72 MISG      29.46F
BERTHOUD PASS  CLOUDY     1  -9  60 MISG      29.45S
COTTONWOOD PAS CLOUDY    21   7  53 SW8       29.50R WCI  12
GUNNISON       LGT SNOW  14  11  87 W3        29.58S VSB 1
KREMMLING      MOCLDY    14  10  85 CALM      29.59R
LEADVILLE      MOCLDY     5  -1  76 NE8       29.48S WCI  -8
MONARCH PASS     N/A      9   3  78 CALM      29.57S
SALIDA         CLOUDY    18  10  71 NW5       29.61F WCI  11
SUNLIGHT       CLOUDY    10   9  92 W7        29.54S WCI   0
WILKERSON PASS CLOUDY    10   5  79 W3        29.49S
$$

COZ069>075-241600-
...SAN LUIS VALLEY/SANGRE DE CRISTO MOUNTAINS...

CITY           SKY/WX    TMP DP  RH WIND       PRES   REMARKS
ALAMOSA        CLOUDY    22  20  92 NW5       29.53R WCI  16
LA VETA PASS   HVY SNOW  18  16  93 NE16G24   29.49S VSB 1/4 WCI   3
SAGUACHE       CLOUDY    19  14  79 NW10      29.54S WCI   8
$$

COZ035-036-038>040-241600-
...NORTHERN COLORADO FRONT RANGE...

CITY           SKY/WX    TMP DP  RH WIND       PRES   REMARKS
DENVER INTL AP CLOUDY    31  28  89 NW7       29.53R WCI  24
DMNS CITY PARK   N/A     31  26  83 MISG      29.53S
AURORA         CLOUDY    29  29  99 W5        29.53R WCI  24
FRONT RANGE AP CLOUDY    32  30  93 NW3       29.54R
ERIE MUNI ARPT FAIR      25  22  91 CALM      29.54R
BOULDER MUN AP FAIR      30  19  64 S3        29.53R
CENTENNIAL     MOCLDY    27  25  92 W3        29.52R
BROOMFIELD     MOCLDY    28  25  86 CALM      29.52S
FORT COLLINS     N/A     26  25  96 NE10      29.57R WCI  16
LONGMONT       FAIR      26  22  82 NE9       29.56R WCI  17
$$

COZ041-046-047-076>085-087-088-241600-
...PIKES PEAK/PALMER DIVIDE AND SOUTHERN FOOTHILLS...

CITY           SKY/WX    TMP DP  RH WIND       PRES   REMARKS
COLO. SPRINGS  MOCLDY    31  18  58 N13       29.47F WCI  21
A. F. ACADEMY  FAIR      26  20  77 N16       29.47S WCI  14
SCHRIEVER AFB  FAIR      27  23  84 N13       29.48R WCI  17
ELLICOTT       FAIR     N/A N/A N/A N12G23    29.47S
FALCON         FAIR      26  23  87 N9G22     29.48S WCI  17
FORT CARSON    FAIR      26  19  74 N5        29.46S WCI  20
LIMON          FOG       28  28 100 N15       29.51R VSB 3/4 WCI  16
MONUMENT HILL  CLOUDY    23  23 100 N9        29.51S FOG     WCI  13
TRINIDAD       MOCLDY    33  23  66 W10       29.49F WCI  25
$$

COZ042>045-048>051-090-091-241600-
...NORTHEAST COLORADO...

CITY           SKY/WX    TMP DP  RH WIND       PRES   REMARKS
GREELEY ARPT   CLOUDY    28  23  81 NE17G24   29.59R WCI  16
AKRON          CLOUDY    25  23  92 N18       29.53R FOG     WCI  11
BURLINGTON     CLOUDY    31  29  92 N15       29.48R FOG     WCI  20
WRAY           NOT AVBL
STERLING       NOT AVBL
HOLYOKE        CLOUDY    34  32  93 N12       29.53R FOG     WCI  25
FORT MORGAN    CLOUDY    27  23  86 N9        29.57R WCI  17
$$

COZ086-089-092>099-241600-
...SOUTHEAST COLORADO...

CITY           SKY/WX    TMP DP  RH WIND       PRES   REMARKS
PUEBLO         FAIR      34  24  67 N9        29.49R WCI  27
LA JUNTA       FAIR      35  29  78 W5        29.49R WCI  31
LAMAR          FAIR      34  28  79 NW8       29.48R WCI  27
SPRINGFIELD      N/A     41  30  65 W9        29.47R
$$




USA.gov is the U.S. government's official web portal to all federal, state and local government web resources and services.